Time,TemperatureF,DewpointF,PressureIn,WindDirection,WindDirectionDegrees,WindSpeedMPH,WindSpeedGustMPH,Humidity,HourlyPrecipIn,Conditions,Clouds,dailyrainin,SoftwareType,DateUTC
2013-07-12 00:01:00,72.0,60.8,29.84,SSW,192,0.0,0.0,68,0.00,,,0.00,WeatherCatV1.15B25,2013-07-12 05:01:00,
2013-07-12 00:06:00,71.8,60.7,29.84,SSW,192,0.0,0.0,68,0.00,,,0.00,WeatherCatV1.15B25,2013-07-12 05:06:00,
2013-07-12 00:10:00,71.6,60.5,29.84,SSW,192,0.0,0.0,68,0.00,,,0.00,WeatherCatV1.15B25,2013-07-12 05:10:00,
2013-07-12 00:15:00,71.5,60.4,29.84,SSW,192,0.0,1.0,68,0.00,,,0.00,WeatherCatV1.15B25,2013-07-12 05:15:00,
2013-07-12 00:20:00,71.3,60.6,29.84,SSW,192,0.0,0.0,69,0.00,,,0.00,WeatherCatV1.15B25,2013-07-12 05:20:00,
2013-07-12 00:25:00,71.1,60.4,29.84,SSW,192,0.0,0.0,69,0.00,,,0.00,WeatherCatV1.15B25,2013-07-12 05:25:00,
2013-07-12 00:30:00,71.1,60.8,29.84,SSW,192,0.0,0.0,70,0.00,,,0.00,WeatherCatV1.15B25,2013-07-12 05:30:00,
2013-07-12 00:35:00,70.9,60.6,29.84,SSW,192,0.0,0.0,70,0.00,,,0.00,WeatherCatV1.15B25,2013-07-12 05:35:00,
2013-07-12 00:40:00,70.8,60.9,29.84,SSW,192,0.0,3.0,71,0.00,,,0.00,WeatherCatV1.15B25,2013-07-12 05:40:00,
2013-07-12 00:45:00,70.4,60.5,29.84,SSW,192,0.0,0.0,71,0.00,,,0.00,WeatherCatV1.15B25,2013-07-12 05:45:00,
2013-07-12 00:50:00,70.3,60.8,29.84,SSW,192,0.0,2.0,72,0.00,,,0.00,WeatherCatV1.15B25,2013-07-12 05:50:00,
2013-07-12 00:55:00,70.1,60.6,29.84,SSW,192,0.0,1.0,72,0.00,,,0.00,WeatherCatV1.15B25,2013-07-12 05:55:00,
2013-07-12 01:00:00,69.9,60.8,29.85,SSW,192,0.0,0.0,73,0.00,,,0.00,WeatherCatV1.15B25,2013-07-12 06:00:00,
2013-07-12 01:05:00,69.9,60.8,29.85,SSW,192,0.0,0.0,73,0.00,,,0.00,WeatherCatV1.15B25,2013-07-12 06:05:00,
2013-07-12 01:10:00,69.8,61.1,29.85,SSW,192,0.0,0.0,74,0.00,,,0.00,WeatherCatV1.15B25,2013-07-12 06:10:00,
2013-07-12 01:15:00,69.8,61.1,29.83,SSW,192,0.0,2.0,74,0.00,,,0.00,WeatherCatV1.15B25,2013-07-12 06:15:00,
2013-07-12 01:20:00,69.6,60.9,29.83,SSW,192,0.0,0.0,74,0.00,,,0.00,WeatherCatV1.15B25,2013-07-12 06:20:00,
2013-07-12 01:25:00,69.6,60.9,29.83,SSW,192,0.0,0.0,74,0.00,,,0.00,WeatherCatV1.15B25,2013-07-12 06:25:00,
2013-07-12 01:30:00,69.4,60.7,29.83,SSW,192,0.0,0.0,74,0.00,,,0.00,WeatherCatV1.15B25,2013-07-12 06:30:00,
2013-07-12 01:35:00,69.4,61.1,29.83,SSW,192,0.0,1.0,75,0.00,,,0.00,WeatherCatV1.15B25,2013-07-12 06:35:00,
2013-07-12 01:40:00,69.3,61.0,29.83,SSW,192,0.0,0.0,75,0.00,,,0.00,WeatherCatV1.15B25,2013-07-12 06:40:00,
2013-07-12 01:45:00,69.1,60.8,29.83,SSW,192,0.0,0.0,75,0.00,,,0.00,WeatherCatV1.15B25,2013-07-12 06:45:00,
2013-07-12 01:50:00,69.1,61.2,29.83,SSW,192,0.0,0.0,76,0.00,,,0.00,WeatherCatV1.15B25,2013-07-12 06:50:00,
2013-07-12 01:55:00,68.9,61.0,29.83,SSW,192,0.0,1.0,76,0.00,,,0.00,WeatherCatV1.15B25,2013-07-12 06:55:00,
2013-07-12 02:00:00,68.8,60.9,29.83,SSW,192,0.0,1.0,76,0.00,,,0.00,WeatherCatV1.15B25,2013-07-12 07:00:00,
2013-07-12 02:05:00,68.8,60.9,29.83,SSW,192,0.0,0.0,76,0.00,,,0.00,WeatherCatV1.15B25,2013-07-12 07:05:00,
2013-07-12 02:10:00,68.6,60.7,29.83,SSW,192,0.0,0.0,76,0.00,,,0.00,WeatherCatV1.15B25,2013-07-12 07:10:00,
2013-07-12 02:15:00,68.6,60.7,29.83,SSW,192,0.0,0.0,76,0.00,,,0.00,WeatherCatV1.15B25,2013-07-12 07:15:00,
2013-07-12 02:20:00,68.4,60.5,29.83,SSW,192,0.0,0.0,76,0.00,,,0.00,WeatherCatV1.15B25,2013-07-12 07:20:00,
2013-07-12 02:25:00,68.3,60.4,29.83,SSW,192,0.0,0.0,76,0.00,,,0.00,WeatherCatV1.15B25,2013-07-12 07:25:00,
2013-07-12 02:30:00,68.1,60.6,29.83,SSW,192,0.0,0.0,77,0.00,,,0.00,WeatherCatV1.15B25,2013-07-12 07:30:00,
2013-07-12 02:35:00,67.9,60.4,29.83,SSW,192,0.0,0.0,77,0.00,,,0.00,WeatherCatV1.15B25,2013-07-12 07:35:00,
2013-07-12 02:40:00,67.8,60.7,29.83,SSW,192,0.0,0.0,78,0.00,,,0.00,WeatherCatV1.15B25,2013-07-12 07:40:00,
2013-07-12 02:45:00,67.6,60.5,29.83,SSW,192,0.0,0.0,78,0.00,,,0.00,WeatherCatV1.15B25,2013-07-12 07:45:00,
2013-07-12 02:50:00,67.6,60.5,29.83,SSW,192,0.0,0.0,78,0.00,,,0.00,WeatherCatV1.15B25,2013-07-12 07:50:00,
2013-07-12 02:55:00,67.4,60.3,29.83,SSW,192,0.0,0.0,78,0.00,,,0.00,WeatherCatV1.15B25,2013-07-12 07:55:00,
2013-07-12 03:00:00,67.4,60.7,29.83,SSW,192,0.0,0.0,79,0.00,,,0.00,WeatherCatV1.15B25,2013-07-12 08:00:00,
2013-07-12 03:05:00,67.4,60.7,29.83,SSW,192,0.0,0.0,79,0.00,,,0.00,WeatherCatV1.15B25,2013-07-12 08:05:00,
2013-07-12 03:10:00,67.3,60.6,29.83,SSW,192,0.0,0.0,79,0.00,,,0.00,WeatherCatV1.15B25,2013-07-12 08:10:00,
2013-07-12 03:15:00,67.3,60.6,29.82,SSW,192,0.0,0.0,79,0.00,,,0.00,WeatherCatV1.15B25,2013-07-12 08:15:00,
2013-07-12 03:20:00,67.3,60.2,29.82,SSW,192,0.0,0.0,78,0.00,,,0.00,WeatherCatV1.15B25,2013-07-12 08:20:00,
2013-07-12 03:25:00,67.3,60.2,29.82,SSW,192,0.0,0.0,78,0.00,,,0.00,WeatherCatV1.15B25,2013-07-12 08:25:00,
2013-07-12 03:30:00,67.3,60.2,29.82,SSW,192,0.0,0.0,78,0.00,,,0.00,WeatherCatV1.15B25,2013-07-12 08:30:00,
2013-07-12 03:35:00,67.3,59.8,29.82,SSW,192,0.0,0.0,77,0.00,,,0.00,WeatherCatV1.15B25,2013-07-12 08:35:00,
2013-07-12 03:40:00,67.3,59.8,29.82,SSW,192,0.0,0.0,77,0.00,,,0.00,WeatherCatV1.15B25,2013-07-12 08:40:00,
2013-07-12 03:45:00,67.4,59.9,29.82,SSW,192,0.0,0.0,77,0.00,,,0.00,WeatherCatV1.15B25,2013-07-12 08:45:00,
2013-07-12 03:50:00,67.4,59.9,29.82,SSW,192,0.0,0.0,77,0.00,,,0.00,WeatherCatV1.15B25,2013-07-12 08:50:00,
2013-07-12 03:55:00,67.4,59.6,29.82,SSW,192,0.0,0.0,76,0.00,,,0.00,WeatherCatV1.15B25,2013-07-12 08:55:00,
2013-07-12 04:00:00,67.4,59.6,29.82,SSW,192,0.0,0.0,76,0.00,,,0.00,WeatherCatV1.15B25,2013-07-12 09:00:00,
2013-07-12 04:05:00,67.4,59.6,29.82,SSW,192,0.0,0.0,76,0.00,,,0.00,WeatherCatV1.15B25,2013-07-12 09:05:00,
2013-07-12 04:10:00,67.4,59.6,29.82,SSW,192,0.0,0.0,76,0.00,,,0.00,WeatherCatV1.15B25,2013-07-12 09:10:00,
2013-07-12 04:15:00,67.4,59.6,29.82,SSW,192,0.0,0.0,76,0.00,,,0.00,WeatherCatV1.15B25,2013-07-12 09:15:00,
2013-07-12 04:20:00,67.4,59.6,29.82,SSW,192,0.0,0.0,76,0.00,,,0.00,WeatherCatV1.15B25,2013-07-12 09:20:00,
2013-07-12 04:25:00,67.3,59.5,29.82,SSW,192,0.0,0.0,76,0.00,,,0.00,WeatherCatV1.15B25,2013-07-12 09:25:00,
2013-07-12 04:30:00,67.3,59.5,29.82,SSW,192,0.0,0.0,76,0.00,,,0.00,WeatherCatV1.15B25,2013-07-12 09:30:00,
2013-07-12 04:35:00,67.1,59.3,29.82,SSW,192,0.0,0.0,76,0.00,,,0.00,WeatherCatV1.15B25,2013-07-12 09:35:00,
2013-07-12 04:40:00,66.9,59.1,29.82,SSW,192,0.0,0.0,76,0.00,,,0.00,WeatherCatV1.15B25,2013-07-12 09:40:00,
2013-07-12 04:45:00,66.8,59.3,29.82,SSW,192,0.0,0.0,77,0.00,,,0.00,WeatherCatV1.15B25,2013-07-12 09:45:00,
2013-07-12 04:50:00,66.8,59.3,29.82,SSW,192,0.0,0.0,77,0.00,,,0.00,WeatherCatV1.15B25,2013-07-12 09:50:00,
2013-07-12 04:55:00,66.6,59.2,29.82,SSW,192,0.0,0.0,77,0.00,,,0.00,WeatherCatV1.15B25,2013-07-12 09:55:00,
2013-07-12 05:00:00,66.6,59.2,29.83,SSW,192,0.0,0.0,77,0.00,,,0.00,WeatherCatV1.15B25,2013-07-12 10:00:00,
2013-07-12 05:05:00,66.4,59.0,29.83,SSW,192,0.0,0.0,77,0.00,,,0.00,WeatherCatV1.15B25,2013-07-12 10:05:00,
2013-07-12 05:10:00,66.4,59.3,29.83,SSW,192,0.0,0.0,78,0.00,,,0.00,WeatherCatV1.15B25,2013-07-12 10:10:00,
2013-07-12 05:15:00,66.4,59.3,29.83,SSW,192,0.0,2.0,78,0.00,,,0.00,WeatherCatV1.15B25,2013-07-12 10:15:00,
2013-07-12 05:20:00,66.3,59.2,29.83,SSW,192,0.0,0.0,78,0.00,,,0.00,WeatherCatV1.15B25,2013-07-12 10:20:00,
2013-07-12 05:25:00,66.3,59.2,29.83,SSW,192,0.0,0.0,78,0.00,,,0.00,WeatherCatV1.15B25,2013-07-12 10:25:00,
2013-07-12 05:30:00,66.3,59.2,29.83,SSW,192,0.0,0.0,78,0.00,,,0.00,WeatherCatV1.15B25,2013-07-12 10:30:00,
2013-07-12 05:35:00,66.3,59.2,29.83,SSW,192,0.0,0.0,78,0.00,,,0.00,WeatherCatV1.15B25,2013-07-12 10:35:00,
2013-07-12 05:40:00,66.3,59.6,29.83,SSW,192,0.0,0.0,79,0.00,,,0.00,WeatherCatV1.15B25,2013-07-12 10:40:00,
2013-07-12 05:45:00,66.3,59.6,29.83,SSW,192,0.0,0.0,79,0.00,,,0.00,WeatherCatV1.15B25,2013-07-12 10:45:00,
2013-07-12 05:50:00,66.3,59.6,29.83,SSW,192,0.0,0.0,79,0.00,,,0.00,WeatherCatV1.15B25,2013-07-12 10:50:00,
2013-07-12 05:55:00,66.3,59.6,29.83,SSW,192,0.0,0.0,79,0.00,,,0.00,WeatherCatV1.15B25,2013-07-12 10:55:00,
2013-07-12 06:00:00,66.3,59.6,29.83,SSW,192,0.0,1.0,79,0.00,,,0.00,WeatherCatV1.15B25,2013-07-12 11:00:00,
2013-07-12 06:05:00,66.3,59.6,29.83,SSW,192,0.0,0.0,79,0.00,,,0.00,WeatherCatV1.15B25,2013-07-12 11:05:00,
2013-07-12 06:10:00,66.3,59.6,29.83,SSW,192,0.0,0.0,79,0.00,,,0.00,WeatherCatV1.15B25,2013-07-12 11:10:00,
2013-07-12 06:15:00,66.3,59.6,29.83,SSW,192,0.0,1.0,79,0.00,,,0.00,WeatherCatV1.15B25,2013-07-12 11:15:00,
2013-07-12 06:20:00,66.1,59.7,29.83,SSW,192,0.0,0.0,80,0.00,,,0.00,WeatherCatV1.15B25,2013-07-12 11:20:00,
2013-07-12 06:25:00,66.1,59.7,29.83,SSW,192,0.0,0.0,80,0.00,,,0.00,WeatherCatV1.15B25,2013-07-12 11:25:00,
2013-07-12 06:30:00,66.3,59.9,29.84,SSW,192,0.0,0.0,80,0.00,,,0.00,WeatherCatV1.15B25,2013-07-12 11:30:00,
2013-07-12 06:35:00,66.4,60.0,29.84,SSW,192,0.0,0.0,80,0.00,,,0.00,WeatherCatV1.15B25,2013-07-12 11:35:00,
2013-07-12 06:40:00,66.8,60.4,29.84,SSW,192,0.0,1.0,80,0.00,,,0.00,WeatherCatV1.15B25,2013-07-12 11:40:00,
2013-07-12 06:45:00,67.1,60.7,29.84,SSW,192,0.0,0.0,80,0.00,,,0.00,WeatherCatV1.15B25,2013-07-12 11:45:00,
2013-07-12 06:50:00,67.6,60.8,29.84,SSW,192,0.0,0.0,79,0.00,,,0.00,WeatherCatV1.15B25,2013-07-12 11:50:00,
2013-07-12 06:55:00,67.9,60.8,29.84,SSW,192,0.0,0.0,78,0.00,,,0.00,WeatherCatV1.15B25,2013-07-12 11:55:00,
2013-07-12 07:00:00,68.4,61.3,29.83,SSW,192,0.0,0.0,78,0.00,,,0.00,WeatherCatV1.15B25,2013-07-12 12:00:00,
2013-07-12 07:05:00,68.9,61.0,29.83,SSW,192,0.0,2.0,76,0.00,,,0.00,WeatherCatV1.15B25,2013-07-12 12:05:00,
2013-07-12 07:10:00,69.4,61.5,29.83,SSW,192,1.0,1.0,76,0.00,,,0.00,WeatherCatV1.15B25,2013-07-12 12:10:00,
2013-07-12 07:15:00,69.9,61.6,29.84,SSW,192,0.0,1.0,75,0.00,,,0.00,WeatherCatV1.15B25,2013-07-12 12:15:00,
2013-07-12 07:20:00,70.4,61.7,29.84,SSW,192,0.0,1.0,74,0.00,,,0.00,WeatherCatV1.15B25,2013-07-12 12:20:00,
2013-07-12 07:25:00,70.9,61.4,29.84,South,179,0.0,7.0,72,0.00,,,0.00,WeatherCatV1.15B25,2013-07-12 12:25:00,
2013-07-12 07:30:00,71.3,61.8,29.84,South,179,0.0,1.0,72,0.00,,,0.00,WeatherCatV1.15B25,2013-07-12 12:30:00,
2013-07-12 07:35:00,71.6,61.7,29.84,South,180,0.0,2.0,71,0.00,,,0.00,WeatherCatV1.15B25,2013-07-12 12:35:00,
2013-07-12 07:40:00,72.0,61.7,29.84,South,182,2.0,3.0,70,0.00,,,0.00,WeatherCatV1.15B25,2013-07-12 12:40:00,
2013-07-12 07:45:00,72.1,61.8,29.84,SSW,192,3.0,4.0,70,0.00,,,0.00,WeatherCatV1.15B25,2013-07-12 12:45:00,
2013-07-12 07:50:00,72.5,61.7,29.84,SSE,165,1.0,4.0,69,0.00,,,0.00,WeatherCatV1.15B25,2013-07-12 12:50:00,
2013-07-12 07:55:00,73.0,62.2,29.84,South,191,0.0,7.0,69,0.00,,,0.00,WeatherCatV1.15B25,2013-07-12 12:55:00,
2013-07-12 08:00:00,73.2,61.6,29.84,SW,217,0.0,5.0,67,0.00,,,0.00,WeatherCatV1.15B25,2013-07-12 13:00:00,
2013-07-12 08:05:00,73.3,61.7,29.84,South,181,2.0,3.0,67,0.00,,,0.00,WeatherCatV1.15B25,2013-07-12 13:05:00,
2013-07-12 08:10:00,73.7,61.6,29.84,SSW,195,0.0,9.0,66,0.00,,,0.00,WeatherCatV1.15B25,2013-07-12 13:10:00,
2013-07-12 08:15:00,74.0,62.3,29.85,SSW,194,1.0,1.0,67,0.00,,,0.00,WeatherCatV1.15B25,2013-07-12 13:15:00,
2013-07-12 08:20:00,74.4,61.4,29.85,South,182,10.0,10.0,64,0.00,,,0.00,WeatherCatV1.15B25,2013-07-12 13:20:00,
2013-07-12 08:25:00,74.7,61.7,29.85,South,182,1.0,2.0,64,0.00,,,0.00,WeatherCatV1.15B25,2013-07-12 13:25:00,
2013-07-12 08:30:00,74.9,61.9,29.84,South,176,11.0,11.0,64,0.00,,,0.00,WeatherCatV1.15B25,2013-07-12 13:30:00,
2013-07-12 08:35:00,74.9,61.4,29.84,South,183,3.0,10.0,63,0.00,,,0.00,WeatherCatV1.15B25,2013-07-12 13:35:00,
2013-07-12 08:40:00,74.7,61.7,29.84,SSW,196,0.0,1.0,64,0.00,,,0.00,WeatherCatV1.15B25,2013-07-12 13:40:00,
2013-07-12 08:45:00,74.9,61.9,29.85,SSW,193,0.0,9.0,64,0.00,,,0.00,WeatherCatV1.15B25,2013-07-12 13:45:00,
2013-07-12 08:50:00,75.1,62.1,29.85,SE,132,3.0,11.0,64,0.00,,,0.00,WeatherCatV1.15B25,2013-07-12 13:50:00,
2013-07-12 08:55:00,75.3,62.3,29.85,SSW,198,1.0,5.0,64,0.00,,,0.00,WeatherCatV1.15B25,2013-07-12 13:55:00,
2013-07-12 09:00:00,75.6,62.1,29.84,SSW,205,0.0,5.0,63,0.00,,,0.00,WeatherCatV1.15B25,2013-07-12 14:00:00,
2013-07-12 09:05:00,75.6,62.1,29.84,SSW,197,0.0,4.0,63,0.00,,,0.00,WeatherCatV1.15B25,2013-07-12 14:05:00,
2013-07-12 09:10:00,76.0,62.9,29.84,South,169,0.0,10.0,64,0.00,,,0.00,WeatherCatV1.15B25,2013-07-12 14:10:00,
2013-07-12 09:15:00,76.0,63.8,29.84,South,180,0.0,2.0,66,0.00,,,0.00,WeatherCatV1.15B25,2013-07-12 14:15:00,
2013-07-12 09:20:00,75.8,64.0,29.84,South,180,1.0,3.0,67,0.00,,,0.00,WeatherCatV1.15B25,2013-07-12 14:20:00,
2013-07-12 09:25:00,75.3,62.3,29.84,South,179,0.0,9.0,64,0.00,,,0.00,WeatherCatV1.15B25,2013-07-12 14:25:00,
2013-07-12 09:30:00,74.7,62.6,29.84,South,188,0.0,7.0,66,0.00,,,0.00,WeatherCatV1.15B25,2013-07-12 14:30:00,
2013-07-12 09:35:00,74.6,62.5,29.84,SSW,201,0.0,5.0,66,0.00,,,0.00,WeatherCatV1.15B25,2013-07-12 14:35:00,
2013-07-12 09:40:00,74.6,62.9,29.84,SSW,192,4.0,4.0,67,0.00,,,0.00,WeatherCatV1.15B25,2013-07-12 14:40:00,
2013-07-12 09:45:00,74.9,63.2,29.84,SSW,196,0.0,0.0,67,0.00,,,0.00,WeatherCatV1.15B25,2013-07-12 14:45:00,
2013-07-12 09:50:00,75.3,63.6,29.84,South,190,0.0,9.0,67,0.00,,,0.00,WeatherCatV1.15B25,2013-07-12 14:50:00,
2013-07-12 09:55:00,75.3,63.1,29.84,SSE,148,0.0,9.0,66,0.00,,,0.00,WeatherCatV1.15B25,2013-07-12 14:55:00,
2013-07-12 10:00:00,75.4,62.8,29.84,South,170,5.0,12.0,65,0.00,,,0.00,WeatherCatV1.15B25,2013-07-12 15:00:00,
2013-07-12 10:05:00,75.6,63.0,29.84,SSW,202,2.0,7.0,65,0.00,,,0.00,WeatherCatV1.15B25,2013-07-12 15:05:00,
2013-07-12 10:10:00,75.6,63.0,29.84,South,173,3.0,10.0,65,0.00,,,0.00,WeatherCatV1.15B25,2013-07-12 15:10:00,
2013-07-12 10:15:00,75.8,63.2,29.84,South,180,1.0,8.0,65,0.00,,,0.00,WeatherCatV1.15B25,2013-07-12 15:15:00,
2013-07-12 10:20:00,76.0,63.8,29.84,South,186,1.0,4.0,66,0.00,,,0.00,WeatherCatV1.15B25,2013-07-12 15:20:00,
2013-07-12 10:25:00,76.3,64.1,29.84,South,186,0.0,4.0,66,0.00,,,0.00,WeatherCatV1.15B25,2013-07-12 15:25:00,
2013-07-12 10:30:00,76.5,63.4,29.84,SSW,195,9.0,9.0,64,0.00,,,0.00,WeatherCatV1.15B25,2013-07-12 15:30:00,
2013-07-12 10:35:00,76.5,62.5,29.84,South,180,0.0,6.0,62,0.00,,,0.00,WeatherCatV1.15B25,2013-07-12 15:35:00,
2013-07-12 10:40:00,76.8,63.2,29.84,South,184,0.0,1.0,63,0.00,,,0.00,WeatherCatV1.15B25,2013-07-12 15:40:00,
2013-07-12 10:45:00,77.0,62.5,29.83,South,182,0.0,3.0,61,0.00,,,0.00,WeatherCatV1.15B25,2013-07-12 15:45:00,
2013-07-12 10:50:00,76.8,62.3,29.83,SSW,200,1.0,7.0,61,0.00,,,0.00,WeatherCatV1.15B25,2013-07-12 15:50:00,
2013-07-12 10:55:00,76.8,62.8,29.83,SSW,194,2.0,3.0,62,0.00,,,0.00,WeatherCatV1.15B25,2013-07-12 15:55:00,
2013-07-12 11:00:00,76.8,62.8,29.83,South,190,0.0,6.0,62,0.00,,,0.00,WeatherCatV1.15B25,2013-07-12 16:00:00,
2013-07-12 11:05:00,77.2,63.2,29.83,SSE,157,12.0,15.0,62,0.00,,,0.00,WeatherCatV1.15B25,2013-07-12 16:05:00,
2013-07-12 11:10:00,77.6,63.5,29.83,South,182,5.0,11.0,62,0.00,,,0.00,WeatherCatV1.15B25,2013-07-12 16:10:00,
2013-07-12 11:15:00,78.1,64.5,29.82,South,177,0.0,0.0,63,0.00,,,0.00,WeatherCatV1.15B25,2013-07-12 16:15:00,
2013-07-12 11:20:00,78.5,63.9,29.82,SE,146,1.0,6.0,61,0.00,,,0.00,WeatherCatV1.15B25,2013-07-12 16:20:00,
2013-07-12 11:25:00,78.8,63.7,29.82,SSE,162,0.0,3.0,60,0.00,,,0.00,WeatherCatV1.15B25,2013-07-12 16:25:00,
2013-07-12 11:30:00,79.0,63.4,29.82,South,177,3.0,6.0,59,0.00,,,0.00,WeatherCatV1.15B25,2013-07-12 16:30:00,
2013-07-12 11:35:00,79.4,63.8,29.82,South,189,2.0,12.0,59,0.00,,,0.00,WeatherCatV1.15B25,2013-07-12 16:35:00,
2013-07-12 11:40:00,79.6,63.5,29.82,South,170,0.0,14.0,58,0.00,,,0.00,WeatherCatV1.15B25,2013-07-12 16:40:00,
2013-07-12 11:45:00,79.8,63.7,29.82,SSW,194,0.0,4.0,58,0.00,,,0.00,WeatherCatV1.15B25,2013-07-12 16:45:00,
2013-07-12 11:50:00,80.1,64.0,29.82,SSW,198,0.0,3.0,58,0.00,,,0.00,WeatherCatV1.15B25,2013-07-12 16:50:00,
2013-07-12 11:55:00,80.3,64.6,29.82,South,185,0.0,1.0,59,0.00,,,0.00,WeatherCatV1.15B25,2013-07-12 16:55:00,
2013-07-12 12:00:00,80.7,65.0,29.81,South,190,6.0,8.0,59,0.00,,,0.00,WeatherCatV1.15B25,2013-07-12 17:00:00,
2013-07-12 12:05:00,80.9,64.2,29.81,South,177,0.0,4.0,57,0.00,,,0.00,WeatherCatV1.15B25,2013-07-12 17:05:00,
2013-07-12 12:10:00,81.1,63.9,29.81,South,174,1.0,15.0,56,0.00,,,0.00,WeatherCatV1.15B25,2013-07-12 17:10:00,
2013-07-12 12:15:00,81.2,63.5,29.81,SE,137,2.0,10.0,55,0.00,,,0.00,WeatherCatV1.15B25,2013-07-12 17:15:00,
2013-07-12 12:20:00,81.6,63.8,29.81,South,191,0.0,5.0,55,0.00,,,0.00,WeatherCatV1.15B25,2013-07-12 17:20:00,
2013-07-12 12:25:00,82.0,65.2,29.81,SSW,193,0.0,3.0,57,0.00,,,0.00,WeatherCatV1.15B25,2013-07-12 17:25:00,
2013-07-12 12:30:00,82.4,65.1,29.81,South,189,0.0,1.0,56,0.00,,,0.00,WeatherCatV1.15B25,2013-07-12 17:30:00,
2013-07-12 12:35:00,82.4,64.1,29.81,SSE,164,5.0,10.0,54,0.00,,,0.00,WeatherCatV1.15B25,2013-07-12 17:35:00,
2013-07-12 12:40:00,82.6,64.8,29.81,SSW,204,0.0,6.0,55,0.00,,,0.00,WeatherCatV1.15B25,2013-07-12 17:40:00,
2013-07-12 12:45:00,82.8,64.4,29.80,SE,146,0.0,3.0,54,0.00,,,0.00,WeatherCatV1.15B25,2013-07-12 17:45:00,
2013-07-12 12:50:00,83.0,65.1,29.80,South,189,4.0,15.0,55,0.00,,,0.00,WeatherCatV1.15B25,2013-07-12 17:50:00,
2013-07-12 12:55:00,83.4,65.0,29.80,South,175,1.0,4.0,54,0.00,,,0.00,WeatherCatV1.15B25,2013-07-12 17:55:00,
2013-07-12 13:00:00,83.6,65.7,29.80,South,172,2.0,4.0,55,0.00,,,0.00,WeatherCatV1.15B25,2013-07-12 18:00:00,
2013-07-12 13:05:00,83.8,65.3,29.80,South,180,0.0,1.0,54,0.00,,,0.00,WeatherCatV1.15B25,2013-07-12 18:05:00,
2013-07-12 13:10:00,84.0,65.5,29.80,South,183,6.0,6.0,54,0.00,,,0.00,WeatherCatV1.15B25,2013-07-12 18:10:00,
2013-07-12 13:15:00,84.1,65.6,29.80,SSW,193,3.0,4.0,54,0.00,,,0.00,WeatherCatV1.15B25,2013-07-12 18:15:00,
2013-07-12 13:20:00,84.3,65.8,29.80,SE,125,1.0,2.0,54,0.00,,,0.00,WeatherCatV1.15B25,2013-07-12 18:20:00,
2013-07-12 13:25:00,84.5,66.0,29.80,SSW,209,0.0,6.0,54,0.00,,,0.00,WeatherCatV1.15B25,2013-07-12 18:25:00,
2013-07-12 13:30:00,84.9,66.4,29.80,South,189,0.0,3.0,54,0.00,,,0.00,WeatherCatV1.15B25,2013-07-12 18:30:00,
2013-07-12 13:35:00,85.3,66.2,29.80,SSW,194,4.0,7.0,53,0.00,,,0.00,WeatherCatV1.15B25,2013-07-12 18:35:00,
2013-07-12 13:40:00,85.5,65.8,29.80,ESE,103,0.0,3.0,52,0.00,,,0.00,WeatherCatV1.15B25,2013-07-12 18:40:00,
2013-07-12 13:45:00,85.3,65.1,29.79,SE,144,0.0,2.0,51,0.00,,,0.00,WeatherCatV1.15B25,2013-07-12 18:45:00,
2013-07-12 13:50:00,85.5,65.8,29.79,SSW,202,0.0,10.0,52,0.00,,,0.00,WeatherCatV1.15B25,2013-07-12 18:50:00,
2013-07-12 13:55:00,85.9,66.2,29.79,SSW,202,0.0,3.0,52,0.00,,,0.00,WeatherCatV1.15B25,2013-07-12 18:55:00,
2013-07-12 14:00:00,86.3,66.0,29.79,SSE,167,0.0,1.0,51,0.00,,,0.00,WeatherCatV1.15B25,2013-07-12 19:00:00,
2013-07-12 14:05:00,86.5,67.3,29.79,WNW,294,0.0,1.0,53,0.00,,,0.00,WeatherCatV1.15B25,2013-07-12 19:05:00,
2013-07-12 14:10:00,86.5,67.3,29.79,South,187,2.0,7.0,53,0.00,,,0.00,WeatherCatV1.15B25,2013-07-12 19:10:00,
2013-07-12 14:15:00,87.0,67.2,29.78,South,183,0.0,1.0,52,0.00,,,0.00,WeatherCatV1.15B25,2013-07-12 19:15:00,
2013-07-12 14:20:00,87.4,67.0,29.78,SSW,195,0.0,7.0,51,0.00,,,0.00,WeatherCatV1.15B25,2013-07-12 19:20:00,
2013-07-12 14:25:00,87.6,67.8,29.78,South,181,1.0,6.0,52,0.00,,,0.00,WeatherCatV1.15B25,2013-07-12 19:25:00,
2013-07-12 14:30:00,87.4,66.4,29.78,South,175,0.0,1.0,50,0.00,,,0.00,WeatherCatV1.15B25,2013-07-12 19:30:00,
2013-07-12 14:35:00,87.4,67.0,29.78,South,175,0.0,2.0,51,0.00,,,0.00,WeatherCatV1.15B25,2013-07-12 19:35:00,
2013-07-12 14:40:00,87.2,67.4,29.78,South,177,0.0,1.0,52,0.00,,,0.00,WeatherCatV1.15B25,2013-07-12 19:40:00,
2013-07-12 14:45:00,87.2,67.4,29.78,SSW,198,10.0,10.0,52,0.00,,,0.00,WeatherCatV1.15B25,2013-07-12 19:45:00,
2013-07-12 14:50:00,87.6,67.2,29.78,South,185,0.0,10.0,51,0.00,,,0.00,WeatherCatV1.15B25,2013-07-12 19:50:00,
2013-07-12 14:55:00,87.8,67.9,29.78,South,180,1.0,3.0,52,0.00,,,0.00,WeatherCatV1.15B25,2013-07-12 19:55:00,
2013-07-12 15:00:00,88.2,67.2,29.77,SE,136,0.0,6.0,50,0.00,,,0.00,WeatherCatV1.15B25,2013-07-12 20:00:00,
2013-07-12 15:05:00,88.4,67.9,29.77,South,170,2.0,2.0,51,0.00,,,0.00,WeatherCatV1.15B25,2013-07-12 20:05:00,
2013-07-12 15:10:00,88.4,67.4,29.77,South,173,0.0,4.0,50,0.00,,,0.00,WeatherCatV1.15B25,2013-07-12 20:10:00,
2013-07-12 15:15:00,88.4,67.9,29.77,SSW,202,0.0,9.0,51,0.00,,,0.00,WeatherCatV1.15B25,2013-07-12 20:15:00,
2013-07-12 15:20:00,88.8,68.3,29.77,SSW,196,3.0,6.0,51,0.00,,,0.00,WeatherCatV1.15B25,2013-07-12 20:20:00,
2013-07-12 15:25:00,88.8,67.1,29.77,SSE,157,0.0,4.0,49,0.00,,,0.00,WeatherCatV1.15B25,2013-07-12 20:25:00,
2013-07-12 15:30:00,88.8,67.7,29.77,SE,139,1.0,5.0,50,0.00,,,0.00,WeatherCatV1.15B25,2013-07-12 20:30:00,
2013-07-12 15:35:00,88.8,67.7,29.77,SW,223,2.0,3.0,50,0.00,,,0.00,WeatherCatV1.15B25,2013-07-12 20:35:00,
2013-07-12 15:40:00,89.0,67.9,29.77,SSE,161,1.0,10.0,50,0.00,,,0.00,WeatherCatV1.15B25,2013-07-12 20:40:00,
2013-07-12 15:45:00,89.3,68.2,29.76,South,171,0.0,1.0,50,0.00,,,0.00,WeatherCatV1.15B25,2013-07-12 20:45:00,
2013-07-12 15:50:00,89.7,68.0,29.76,SSE,161,9.0,9.0,49,0.00,,,0.00,WeatherCatV1.15B25,2013-07-12 20:50:00,
2013-07-12 15:55:00,89.9,68.1,29.76,South,171,0.0,2.0,49,0.00,,,0.00,WeatherCatV1.15B25,2013-07-12 20:55:00,
2013-07-12 16:00:00,90.1,68.3,29.76,South,170,3.0,10.0,49,0.00,,,0.00,WeatherCatV1.15B25,2013-07-12 21:00:00,
2013-07-12 16:05:00,90.1,68.9,29.76,SSW,197,1.0,1.0,50,0.00,,,0.00,WeatherCatV1.15B25,2013-07-12 21:05:00,
2013-07-12 16:10:00,90.3,67.9,29.76,SSW,193,5.0,10.0,48,0.00,,,0.00,WeatherCatV1.15B25,2013-07-12 21:10:00,
2013-07-12 16:15:00,90.1,68.3,29.77,South,181,3.0,9.0,49,0.00,,,0.00,WeatherCatV1.15B25,2013-07-12 21:15:00,
2013-07-12 16:20:00,89.9,68.1,29.77,South,179,1.0,7.0,49,0.00,,,0.00,WeatherCatV1.15B25,2013-07-12 21:20:00,
2013-07-12 16:25:00,89.9,68.1,29.77,South,180,0.0,7.0,49,0.00,,,0.00,WeatherCatV1.15B25,2013-07-12 21:25:00,
2013-07-12 16:30:00,89.9,67.5,29.76,South,177,1.0,4.0,48,0.00,,,0.00,WeatherCatV1.15B25,2013-07-12 21:30:00,
2013-07-12 16:35:00,89.9,68.1,29.76,South,172,3.0,8.0,49,0.00,,,0.00,WeatherCatV1.15B25,2013-07-12 21:35:00,
2013-07-12 16:40:00,90.1,68.3,29.76,SSE,162,1.0,1.0,49,0.00,,,0.00,WeatherCatV1.15B25,2013-07-12 21:40:00,
2013-07-12 16:45:00,89.9,67.5,29.76,SE,144,1.0,6.0,48,0.00,,,0.00,WeatherCatV1.15B25,2013-07-12 21:45:00,
2013-07-12 16:50:00,89.9,68.1,29.76,SE,124,2.0,3.0,49,0.00,,,0.00,WeatherCatV1.15B25,2013-07-12 21:50:00,
2013-07-12 16:55:00,89.9,68.1,29.76,SW,224,0.0,5.0,49,0.00,,,0.00,WeatherCatV1.15B25,2013-07-12 21:55:00,
2013-07-12 17:00:00,90.1,67.7,29.76,SSW,200,1.0,3.0,48,0.00,,,0.00,WeatherCatV1.15B25,2013-07-12 22:00:00,
2013-07-12 17:05:00,90.1,67.7,29.76,SSE,164,3.0,12.0,48,0.00,,,0.00,WeatherCatV1.15B25,2013-07-12 22:05:00,
2013-07-12 17:10:00,89.9,67.5,29.76,South,173,1.0,3.0,48,0.00,,,0.00,WeatherCatV1.15B25,2013-07-12 22:10:00,
2013-07-12 17:15:00,89.7,67.4,29.76,South,182,1.0,7.0,48,0.00,,,0.00,WeatherCatV1.15B25,2013-07-12 22:15:00,
2013-07-12 17:20:00,89.7,68.0,29.76,SSW,197,10.0,12.0,49,0.00,,,0.00,WeatherCatV1.15B25,2013-07-12 22:20:00,
2013-07-12 17:25:00,89.5,67.8,29.76,South,179,1.0,7.0,49,0.00,,,0.00,WeatherCatV1.15B25,2013-07-12 22:25:00,
2013-07-12 17:30:00,89.5,67.8,29.76,South,178,2.0,6.0,49,0.00,,,0.00,WeatherCatV1.15B25,2013-07-12 22:30:00,
2013-07-12 17:35:00,89.3,68.2,29.76,South,182,0.0,10.0,50,0.00,,,0.00,WeatherCatV1.15B25,2013-07-12 22:35:00,
2013-07-12 17:40:00,89.0,67.9,29.76,SSW,210,9.0,11.0,50,0.00,,,0.00,WeatherCatV1.15B25,2013-07-12 22:40:00,
2013-07-12 17:45:00,88.8,67.1,29.77,South,183,0.0,4.0,49,0.00,,,0.00,WeatherCatV1.15B25,2013-07-12 22:45:00,
2013-07-12 17:50:00,88.6,67.5,29.77,SSW,192,1.0,7.0,50,0.00,,,0.00,WeatherCatV1.15B25,2013-07-12 22:50:00,
2013-07-12 17:55:00,88.2,67.2,29.77,SSE,152,0.0,3.0,50,0.00,,,0.00,WeatherCatV1.15B25,2013-07-12 22:55:00,
2013-07-12 18:00:00,88.0,67.6,29.75,South,184,1.0,14.0,51,0.00,,,0.00,WeatherCatV1.15B25,2013-07-12 23:00:00,
2013-07-12 18:05:00,88.0,67.6,29.75,South,177,0.0,1.0,51,0.00,,,0.00,WeatherCatV1.15B25,2013-07-12 23:05:00,
2013-07-12 18:10:00,88.0,68.1,29.75,SW,217,4.0,7.0,52,0.00,,,0.00,WeatherCatV1.15B25,2013-07-12 23:10:00,
2013-07-12 18:15:00,87.8,66.8,29.75,SSE,168,4.0,5.0,50,0.00,,,0.00,WeatherCatV1.15B25,2013-07-12 23:15:00,
2013-07-12 18:20:00,87.6,67.2,29.75,South,178,0.0,10.0,51,0.00,,,0.00,WeatherCatV1.15B25,2013-07-12 23:20:00,
2013-07-12 18:25:00,87.4,67.6,29.75,South,173,3.0,8.0,52,0.00,,,0.00,WeatherCatV1.15B25,2013-07-12 23:25:00,
2013-07-12 18:30:00,87.2,66.8,29.75,South,188,0.0,11.0,51,0.00,,,0.00,WeatherCatV1.15B25,2013-07-12 23:30:00,
2013-07-12 18:35:00,87.0,66.6,29.75,SE,135,4.0,5.0,51,0.00,,,0.00,WeatherCatV1.15B25,2013-07-12 23:35:00,
2013-07-12 18:40:00,87.0,67.2,29.75,South,178,0.0,5.0,52,0.00,,,0.00,WeatherCatV1.15B25,2013-07-12 23:40:00,
2013-07-12 18:45:00,86.7,66.4,29.75,SSE,158,3.0,6.0,51,0.00,,,0.00,WeatherCatV1.15B25,2013-07-12 23:45:00,
2013-07-12 18:50:00,86.5,66.8,29.75,SE,144,2.0,12.0,52,0.00,,,0.00,WeatherCatV1.15B25,2013-07-12 23:50:00,
2013-07-12 18:55:00,86.5,66.8,29.75,South,184,1.0,6.0,52,0.00,,,0.00,WeatherCatV1.15B25,2013-07-12 23:55:00,
2013-07-12 19:00:00,86.3,66.6,29.74,SSE,155,1.0,12.0,52,0.00,,,0.00,WeatherCatV1.15B25,2013-07-13 00:00:00,
2013-07-12 19:05:00,86.3,66.6,29.74,SW,225,3.0,13.0,52,0.00,,,0.00,WeatherCatV1.15B25,2013-07-13 00:05:00,
2013-07-12 19:10:00,86.1,66.9,29.74,South,172,0.0,5.0,53,0.00,,,0.00,WeatherCatV1.15B25,2013-07-13 00:10:00,
2013-07-12 19:15:00,86.1,67.5,29.74,South,173,0.0,1.0,54,0.00,,,0.00,WeatherCatV1.15B25,2013-07-13 00:15:00,
2013-07-12 19:20:00,85.9,67.3,29.74,SSW,193,0.0,1.0,54,0.00,,,0.00,WeatherCatV1.15B25,2013-07-13 00:20:00,
2013-07-12 19:25:00,85.9,67.3,29.74,South,188,0.0,7.0,54,0.00,,,0.00,WeatherCatV1.15B25,2013-07-13 00:25:00,
2013-07-12 19:30:00,85.5,67.5,29.75,South,188,0.0,1.0,55,0.00,,,0.00,WeatherCatV1.15B25,2013-07-13 00:30:00,
2013-07-12 19:35:00,85.3,67.3,29.75,South,191,3.0,3.0,55,0.00,,,0.00,WeatherCatV1.15B25,2013-07-13 00:35:00,
2013-07-12 19:40:00,84.9,66.9,29.75,SSW,207,2.0,2.0,55,0.00,,,0.00,WeatherCatV1.15B25,2013-07-13 00:40:00,
2013-07-12 19:45:00,84.7,66.2,29.75,South,175,0.0,3.0,54,0.00,,,0.00,WeatherCatV1.15B25,2013-07-13 00:45:00,
2013-07-12 19:50:00,84.7,66.7,29.75,South,188,0.0,5.0,55,0.00,,,0.00,WeatherCatV1.15B25,2013-07-13 00:50:00,
2013-07-12 19:55:00,84.5,67.0,29.75,South,188,1.0,3.0,56,0.00,,,0.00,WeatherCatV1.15B25,2013-07-13 00:55:00,
2013-07-12 20:00:00,84.3,66.9,29.75,South,181,0.0,5.0,56,0.00,,,0.00,WeatherCatV1.15B25,2013-07-13 01:00:00,
2013-07-12 20:05:00,84.1,66.7,29.75,South,183,0.0,2.0,56,0.00,,,0.00,WeatherCatV1.15B25,2013-07-13 01:05:00,
2013-07-12 20:10:00,84.0,67.1,29.75,South,182,0.0,2.0,57,0.00,,,0.00,WeatherCatV1.15B25,2013-07-13 01:10:00,
2013-07-12 20:15:00,83.8,66.9,29.75,South,182,0.0,2.0,57,0.00,,,0.00,WeatherCatV1.15B25,2013-07-13 01:15:00,
2013-07-12 20:20:00,83.6,66.7,29.75,South,180,0.0,2.0,57,0.00,,,0.00,WeatherCatV1.15B25,2013-07-13 01:20:00,
2013-07-12 20:25:00,83.4,66.5,29.75,SW,215,0.0,6.0,57,0.00,,,0.00,WeatherCatV1.15B25,2013-07-13 01:25:00,
2013-07-12 20:30:00,83.2,66.4,29.75,SSW,194,0.0,4.0,57,0.00,,,0.00,WeatherCatV1.15B25,2013-07-13 01:30:00,
2013-07-12 20:35:00,83.0,66.7,29.75,SSW,193,0.0,1.0,58,0.00,,,0.00,WeatherCatV1.15B25,2013-07-13 01:35:00,
2013-07-12 20:40:00,82.8,66.5,29.75,SW,221,0.0,0.0,58,0.00,,,0.00,WeatherCatV1.15B25,2013-07-13 01:40:00,
2013-07-12 20:45:00,82.6,66.3,29.75,SSW,209,4.0,6.0,58,0.00,,,0.00,WeatherCatV1.15B25,2013-07-13 01:45:00,
2013-07-12 20:50:00,82.4,66.1,29.75,SSW,205,0.0,3.0,58,0.00,,,0.00,WeatherCatV1.15B25,2013-07-13 01:50:00,
2013-07-12 20:55:00,82.2,65.9,29.75,South,190,0.0,2.0,58,0.00,,,0.00,WeatherCatV1.15B25,2013-07-13 01:55:00,
2013-07-12 21:00:00,81.8,66.0,29.75,South,189,0.0,1.0,59,0.00,,,0.00,WeatherCatV1.15B25,2013-07-13 02:00:00,
2013-07-12 21:05:00,81.6,65.9,29.75,South,189,0.0,0.0,59,0.00,,,0.00,WeatherCatV1.15B25,2013-07-13 02:05:00,
2013-07-12 21:10:00,81.4,65.7,29.75,South,189,0.0,1.0,59,0.00,,,0.00,WeatherCatV1.15B25,2013-07-13 02:10:00,
2013-07-12 21:15:00,81.2,65.5,29.75,South,190,1.0,2.0,59,0.00,,,0.00,WeatherCatV1.15B25,2013-07-13 02:15:00,
2013-07-12 21:20:00,81.1,65.4,29.75,South,188,0.0,3.0,59,0.00,,,0.00,WeatherCatV1.15B25,2013-07-13 02:20:00,
2013-07-12 21:25:00,80.9,65.2,29.75,South,188,0.0,2.0,59,0.00,,,0.00,WeatherCatV1.15B25,2013-07-13 02:25:00,
2013-07-12 21:30:00,80.7,65.5,29.76,South,188,0.0,1.0,60,0.00,,,0.00,WeatherCatV1.15B25,2013-07-13 02:30:00,
2013-07-12 21:35:00,80.5,64.8,29.76,South,188,0.0,1.0,59,0.00,,,0.00,WeatherCatV1.15B25,2013-07-13 02:35:00,
2013-07-12 21:40:00,80.3,64.6,29.76,South,188,0.0,0.0,59,0.00,,,0.00,WeatherCatV1.15B25,2013-07-13 02:40:00,
2013-07-12 21:45:00,80.1,64.5,29.76,SSW,202,0.0,2.0,59,0.00,,,0.00,WeatherCatV1.15B25,2013-07-13 02:45:00,
2013-07-12 21:50:00,80.1,64.5,29.76,South,171,0.0,0.0,59,0.00,,,0.00,WeatherCatV1.15B25,2013-07-13 02:50:00,
2013-07-12 21:55:00,79.9,64.3,29.76,South,180,0.0,13.0,59,0.00,,,0.00,WeatherCatV1.15B25,2013-07-13 02:55:00,
2013-07-12 22:00:00,79.8,64.2,29.76,South,186,0.0,3.0,59,0.00,,,0.00,WeatherCatV1.15B25,2013-07-13 03:00:00,
2013-07-12 22:05:00,79.6,64.0,29.76,South,186,1.0,1.0,59,0.00,,,0.00,WeatherCatV1.15B25,2013-07-13 03:05:00,
2013-07-12 22:10:00,79.6,63.5,29.76,South,180,4.0,4.0,58,0.00,,,0.00,WeatherCatV1.15B25,2013-07-13 03:10:00,
2013-07-12 22:15:00,79.6,63.5,29.76,South,181,1.0,1.0,58,0.00,,,0.00,WeatherCatV1.15B25,2013-07-13 03:15:00,
2013-07-12 22:20:00,79.6,63.0,29.76,South,186,0.0,1.0,57,0.00,,,0.00,WeatherCatV1.15B25,2013-07-13 03:20:00,
2013-07-12 22:25:00,79.4,62.8,29.76,South,185,0.0,4.0,57,0.00,,,0.00,WeatherCatV1.15B25,2013-07-13 03:25:00,
2013-07-12 22:30:00,79.4,62.8,29.76,South,191,0.0,3.0,57,0.00,,,0.00,WeatherCatV1.15B25,2013-07-13 03:30:00,
2013-07-12 22:35:00,79.2,62.6,29.76,SSW,193,0.0,1.0,57,0.00,,,0.00,WeatherCatV1.15B25,2013-07-13 03:35:00,
2013-07-12 22:40:00,79.2,62.6,29.76,South,188,1.0,1.0,57,0.00,,,0.00,WeatherCatV1.15B25,2013-07-13 03:40:00,
2013-07-12 22:45:00,79.0,62.4,29.76,South,183,0.0,1.0,57,0.00,,,0.00,WeatherCatV1.15B25,2013-07-13 03:45:00,
2013-07-12 22:50:00,79.0,62.4,29.76,South,191,1.0,7.0,57,0.00,,,0.00,WeatherCatV1.15B25,2013-07-13 03:50:00,
2013-07-12 22:55:00,78.8,62.3,29.76,SSW,198,0.0,4.0,57,0.00,,,0.00,WeatherCatV1.15B25,2013-07-13 03:55:00,
2013-07-12 23:00:00,78.8,62.3,29.76,South,186,0.0,6.0,57,0.00,,,0.00,WeatherCatV1.15B25,2013-07-13 04:00:00,
2013-07-12 23:01:00,78.8,62.3,29.76,South,186,0.0,6.0,57,0.00,,,0.00,WeatherCatV1.15B25,2013-07-13 04:01:00,
2013-07-12 23:06:00,78.6,62.1,29.76,South,185,4.0,11.0,57,0.00,,,0.00,WeatherCatV1.15B25,2013-07-13 04:06:00,
2013-07-12 23:11:00,78.6,62.1,29.76,SSW,209,0.0,6.0,57,0.00,,,0.00,WeatherCatV1.15B25,2013-07-13 04:11:00,
2013-07-12 23:16:00,78.5,62.0,29.76,South,186,0.0,2.0,57,0.00,,,0.00,WeatherCatV1.15B25,2013-07-13 04:16:00,
2013-07-12 23:21:00,78.3,61.8,29.76,South,186,0.0,2.0,57,0.00,,,0.00,WeatherCatV1.15B25,2013-07-13 04:21:00,
2013-07-12 23:26:00,78.3,61.8,29.76,South,188,0.0,0.0,57,0.00,,,0.00,WeatherCatV1.15B25,2013-07-13 04:26:00,
2013-07-12 23:31:00,78.1,61.6,29.77,South,188,3.0,3.0,57,0.00,,,0.00,WeatherCatV1.15B25,2013-07-13 04:31:00,
2013-07-12 23:36:00,78.1,61.6,29.77,South,184,0.0,2.0,57,0.00,,,0.00,WeatherCatV1.15B25,2013-07-13 04:36:00,
2013-07-12 23:41:00,77.9,61.4,29.77,SSW,196,0.0,1.0,57,0.00,,,0.00,WeatherCatV1.15B25,2013-07-13 04:41:00,
2013-07-12 23:46:00,77.9,61.4,29.77,South,190,0.0,3.0,57,0.00,,,0.00,WeatherCatV1.15B25,2013-07-13 04:46:00,
2013-07-12 23:51:00,77.7,61.2,29.77,South,189,0.0,4.0,57,0.00,,,0.00,WeatherCatV1.15B25,2013-07-13 04:51:00,
2013-07-12 23:56:00,77.7,61.2,29.77,South,191,0.0,0.0,57,0.00,,,0.00,WeatherCatV1.15B25,2013-07-13 04:56:00,